{"data":{"norad_id":48123,"intl_designator":"2021-027AH","name":"STARLINK-2464","alt_names":[],"object_type":"PAYLOAD","status":"ACTIVE","operator":null,"country":"US","launch_date":"2021-04-07","launch_site_code":"AFETR","launch_vehicle":null,"mission":null,"orbit_class":"UNKNOWN","rcs_meters":null,"size_class":null,"mass_kg":null,"dimensions":null,"purposes":["comms"],"wikipedia_slug":null,"has_3d_model":false,"image_url":null,"decayed_at":null,"tle_current":{"epoch":"2026-09-19T18:31:39.667296Z","epoch_age_seconds":92150,"freshness":"FRESH","line1":"1 48123U 21027AH  26262.77198689 -.00000017  00000+0  11211-4 0  9991","line2":"2 48123  53.1610 329.3944 0001430  76.7820 283.3341 15.31691471302421","mean_motion":15.31691471,"eccentricity":0.000143,"inclination_deg":53.161,"raan_deg":329.3944,"arg_perigee_deg":76.782,"mean_anomaly_deg":283.3341,"bstar":1.1211e-5,"rev_number":30242,"period_min":94.01371145978,"perigee_km":469.78602680277,"apogee_km":471.74481289485,"semimajor_km":6848.9024198488,"source":"CELESTRAK","updated_at":"2026-09-20T09:00:38.765860Z"}}}